Location: Buchberg
(46.9333°N, 15.8500°E)
Time: 19:43:10
(UTC+00:00)

CZ-2D R/B - Pass Details

Date: 14 July 2020
Orbit: 792 x 845 km, 98.7° (Epoch: 05 August)

Event Time Altitude Azimuth Distance (km) Brightness Sun altitude
Rises 02:19:07 0° 1° (N) 3,345 6.1 -8.4°
Reaches altitude 10° 02:22:10 10° 343° (NNW) 2,419 5.0 -8.0°
Maximum altitude 02:25:35 18° 303° (WNW) 1,946 4.0 -7.6°
Drops below altitude 10° 02:29:01 10° 263° (W) 2,431 4.1 -7.2°
Enters shadow 02:30:27 - 253° (WSW) 2,832 4.4 -7.0°
